Location: Kumla
(59.1265°N, 15.1401°E)
Time: 07:34:15
(UTC+01:00)

Transit 4A - Pass Details

Date: 04 December 2023
Orbit: 870 x 973 km, 66.8° (Epoch: 02 March)

Event Time Altitude Azimuth Distance (km) Brightness Sun altitude
Exits shadow 02:08:16 10° 89° (E) 2,593 10.6 -45.6°
Drops below altitude 10° 02:08:21 10° 90° (E) 2,620 10.6 -45.6°
Sets 02:10:57 0° 96° (E) 3,545 11.4 -45.3°
